[[{"header":{"parameterUnit":"m.s-1","parameterCategory":1,"la1":30.2991,"la2":30.254,"lo1":-89.0895,"lo2":-89.0444,"dy":0.0017,"dx":0.0017,"nx":28,"ny":28,"refTime":"2025-08-23T03:00:00:Z","depth":0,"parameterNumber":2,"parameterNumberName":"U-component_of_WINDS"},"data":[0,0,0,0,0,0,0,0,0,0,0,0,0,0,0,0,0,0,0,0,0,0,0,0,0,0,0,0,0,0,0,0,0,0,0,0,0,0,0,0,0,0,0,0,0,0,0,0,0,0,0,0,0,0,0,0,0,0,2.2439,2.244,0,2.2542,2.2543,2.2544,2.253,2.2529,2.2527,2.2525,2.2639,2.2643,2.2648,0,0,0,0,0,0,0,0,0,0,0,0,0,2.224,2.2244,2.2439,2.244,2.2442,2.2542,2.2543,2.2545,2.2531,2.2528,2.2526,2.2524,2.2637,2.2643,2.2648,0,0,0,0,0,0,0,0,0,0,0,0,0,2.2334,2.2245,2.2439,2.2446,2.2448,2.2542,2.2543,2.2545,2.2531,2.2528,2.2526,2.2523,2.2635,2.2642,2.2649,2.2744,0,0,2.267,2.2673,0,0,0,0,0,0,0,0,2.2328,2.2341,2.2444,2.2446,2.2448,2.252,2.2515,2.2612,2.2532,2.25,2.2525,2.2522,2.2602,2.2612,2.2637,2.2749,2.2754,2.2671,2.2675,2.2678,2.268,0,0,0,0,0,0,0,2.2322,2.2336,2.248,2.2446,2.2448,2.2448,2.2458,2.2533,2.2565,2.2502,2.2502,2.2514,2.2603,2.263,2.2639,2.2756,2.2671,2.2677,2.2681,2.2684,2.2957,2.296,0,0,0,0,0,0,2.2312,2.2331,2.2477,2.2483,2.238,2.2454,2.2465,2.25,2.2564,2.2571,2.2516,2.2512,2.262,2.2631,2.2643,2.2762,2.2678,2.2685,2.2689,2.2954,2.2958,2.2961,0,0,0,0,0,0,2.2308,2.2325,2.2473,2.2407,2.2426,2.246,2.2499,2.2503,2.2531,2.2573,2.258,2.2537,2.2618,2.2634,2.272,2.2765,2.2688,2.2694,2.295,2.2955,2.2959,2.2997,0,0,0,0,0,0,2.2302,2.2324,2.2357,2.2408,2.2429,2.2544,2.2502,2.2507,2.2542,2.2539,2.2595,2.2603,2.2617,2.2709,2.2727,2.2774,2.2699,2.2946,2.2952,2.2958,2.2992,2.3003,2.3012,0,0,0,0,0,2.2295,2.2365,2.2359,2.2377,2.2472,2.2546,2.2559,2.2572,2.2545,2.2582,2.261,2.2601,2.2757,2.2718,2.2737,2.2787,2.2943,2.2951,2.2957,2.2988,2.3001,2.3011,0,0,0,0,0,0,2.2321,2.2371,2.2366,2.2453,2.2495,2.2544,2.2589,2.2585,2.2638,2.2633,2.2649,2.2663,2.275,2.2777,2.2733,2.2885,2.2847,2.2858,2.2864,2.2876,2.2886,2.2878,2.2705,0,0,0,0,0,2.2336,2.239,2.2432,2.2506,2.2527,2.2555,2.2588,2.2594,2.264,2.2659,2.2693,2.274,2.2801,2.284,2.2897,2.2996,2.3011,2.304,2.305,2.3058,2.3068,2.3127,2.3141,2.2984,2.2984,2.2983,0,0,2.237,2.2404,2.2437,2.2512,2.2545,2.2604,2.257,2.2633,2.2678,2.2669,2.2752,2.278,2.2834,2.2928,2.2971,2.2953,2.3115,2.3067,2.3073,2.3079,2.3135,2.315,2.3164,2.2988,2.2987,2.2987,0,0,2.246,2.249,2.2556,2.259,2.2641,2.266,2.2676,2.2726,2.2743,2.2826,2.2822,2.2878,2.298,2.302,2.3054,2.3164,2.316,2.3183,2.3234,2.3291,2.3304,2.3315,2.3358,2.3372,2.3192,2.3192,2.3193,0,2.2496,2.2581,2.2591,2.2655,2.269,2.2683,2.2753,2.2787,2.2855,2.2881,2.286,2.2991,2.3026,2.3131,2.3159,2.3185,2.3207,2.3177,2.3301,2.3312,2.3323,2.3364,2.3379,2.3195,2.3195,2.3195,2.3194,0,2.2624,2.2684,2.2732,2.2796,2.2836,2.2903,2.2927,2.2967,2.2971,2.2993,2.3081,2.3124,2.3192,2.3218,2.3223,2.3325,2.3313,2.3296,2.3259,2.334,2.3379,2.3395,2.3199,2.3198,2.3197,2.3197,0,0,2.2733,2.2803,2.2821,2.2852,2.2909,2.2957,2.3025,2.309,2.3126,2.3174,2.3235,2.3323,2.3309,2.3347,2.3357,2.3407,2.3496,2.3385,2.3387,2.3406,2.3617,2.3631,2.3648,2.3493,2.3496,2.3499,2.3613,0,2.2832,2.2949,2.2961,2.3068,2.3126,2.3122,2.3182,2.3226,2.325,2.3305,2.3332,2.3396,2.337,2.3394,2.3443,2.3475,2.3539,2.3467,2.3554,2.3557,2.3542,2.3668,2.3682,2.3788,2.3628,2.3631,2.3633,0,2.2961,2.3012,2.3124,2.3176,2.3201,2.3254,2.3316,2.3368,2.342,2.3434,2.3478,2.3482,2.3558,2.3517,2.3624,2.3574,2.3611,2.3633,2.3637,2.3647,2.3601,2.3684,2.3822,2.3839,2.3656,2.3654,2.3653,0,2.3034,2.313,2.321,2.3236,2.3298,2.3336,2.3365,2.3413,2.3452,2.3508,2.3535,2.3599,2.3635,2.3687,2.3711,2.3678,2.3818,2.3778,2.3836,2.3835,2.3866,2.3864,2.4014,2.3886,2.3886,2.3886,2.3885,0,2.3143,2.3213,2.3243,2.3293,2.3372,2.3388,2.3467,2.3494,2.3538,2.3597,2.3598,2.3653,2.368,2.3741,2.376,2.3848,2.3864,2.3881,2.3886,2.3882,2.388,2.3907,2.3902,2.389,2.3889,2.3888,2.3888,0,2.3237,2.326,2.3348,2.3399,2.3414,2.3471,2.3517,2.3567,2.3591,2.3665,2.3683,2.3721,2.3793,2.3822,2.391,2.3924,2.4026,2.4024,2.4008,2.401,2.4067,2.4062,2.4241,2.4268,2.412,2.4121,2.4122,0,2.3307,2.336,2.3417,2.3455,2.3484,2.3544,2.3584,2.3603,2.3646,2.3711,2.3755,2.3826,2.3883,2.4,2.4038,2.4107,2.4109,2.4167,2.4119,2.4115,2.4114,2.4111,2.4118,2.4176,2.4178,2.4179,2.418,0,2.3429,2.3438,2.3493,2.3554,2.3601,2.3651,2.3699,2.3731,2.3759,2.3807,2.3879,2.3924,2.4015,2.4087,2.4159,2.4193,2.4193,2.4194,2.4212,2.421,2.4199,2.4209,2.4035,2.419,2.4189,2.4189,2.4188,2.4188,2.3515,2.3563,2.3611,2.3675,2.3713,2.3759,2.3809,2.3839,2.3899,2.3972,2.3981,2.406,2.4115,2.4211,2.4248,2.4313,2.4298,2.4323,2.433,2.4336,2.4342,2.4187,2.4326,2.4326,2.4325,2.4325,2.4325,0,2.364,2.3671,2.3728,2.3796,2.3847,2.3839,2.3893,2.3938,2.4006,2.4055,2.4113,2.4198,2.427,2.4314,2.4387,2.4431,2.4433,2.445,2.4448,2.4457,2.4349,2.4327,2.4447,2.4447,2.4447,2.4447,2.4447,2.4447,2.3711,2.3793,2.3808,2.3912,2.3943,2.4018,2.4051,2.4095,2.4135,2.4229,2.4288,2.4315,2.4365,2.4441,2.4508,2.452,2.4548,2.4567,2.4578,2.4476,2.4464,2.4452,2.4432,2.4572,2.4572,2.4681,2.4682,2.4683]},{"header":{"parameterUnit":"m.s-1","parameterCategory":1,"la1":30.2991,"la2":30.254,"lo1":-89.0895,"lo2":-89.0444,"dy":0.0017,"dx":0.0017,"nx":28,"ny":28,"refTime":"2025-08-23T03:00:00:Z","depth":0,"parameterNumber":3,"parameterNumberName":"V-component_of_WINDS"},"data":[0,0,0,0,0,0,0,0,0,0,0,0,0,0,0,0,0,0,0,0,0,0,0,0,0,0,0,0,0,0,0,0,0,0,0,0,0,0,0,0,0,0,0,0,0,0,0,0,0,0,0,0,0,0,0,0,0,0,-2.1337,-2.1335,0,-2.1123,-2.1121,-2.1119,-2.1017,-2.1017,-2.1017,-2.1018,-2.0779,-2.0773,-2.0767,0,0,0,0,0,0,0,0,0,0,0,0,0,-2.1636,-2.1631,-2.1337,-2.1334,-2.1332,-2.1124,-2.1121,-2.1118,-2.1017,-2.1017,-2.1018,-2.1018,-2.0781,-2.0774,-2.0766,0,0,0,0,0,0,0,0,0,0,0,0,0,-2.1472,-2.1629,-2.1338,-2.1257,-2.1248,-2.1124,-2.1121,-2.1117,-2.1017,-2.1017,-2.1018,-2.1018,-2.0784,-2.0775,-2.0765,-2.07,0,0,-2.0735,-2.0731,0,0,0,0,0,0,0,0,-2.1481,-2.1461,-2.1271,-2.1262,-2.1252,-2.1098,-2.1139,-2.0976,-2.1017,-2.1104,-2.1018,-2.1018,-2.0884,-2.0866,-2.0825,-2.0689,-2.0679,-2.0734,-2.0728,-2.0724,-2.0721,0,0,0,0,0,0,0,-2.1493,-2.147,-2.1252,-2.1269,-2.1257,-2.1224,-2.1201,-2.1107,-2.0994,-2.1096,-2.1089,-2.1066,-2.0878,-2.0834,-2.0818,-2.0675,-2.0735,-2.0726,-2.072,-2.0716,-2.0467,-2.0466,0,0,0,0,0,0,-2.152,-2.148,-2.1259,-2.1246,-2.137,-2.1219,-2.1193,-2.1146,-2.0995,-2.0973,-2.1066,-2.1062,-2.0851,-2.083,-2.0809,-2.0719,-2.0724,-2.0715,-2.071,-2.0467,-2.0466,-2.0465,0,0,0,0,0,0,-2.1527,-2.1502,-2.1267,-2.1361,-2.1328,-2.1213,-2.1162,-2.1142,-2.1098,-2.0973,-2.095,-2.1043,-2.085,-2.0823,-2.0728,-2.0709,-2.0711,-2.0702,-2.0468,-2.0467,-2.0466,-2.0541,0,0,0,0,0,0,-2.1536,-2.1505,-2.1485,-2.1361,-2.1324,-2.1196,-2.1161,-2.1138,-2.1084,-2.1077,-2.0945,-2.0923,-2.0848,-2.0743,-2.0718,-2.0696,-2.0694,-2.0469,-2.0468,-2.0466,-2.0539,-2.0542,-2.0545,0,0,0,0,0,-2.1547,-2.1511,-2.1484,-2.1458,-2.1297,-2.1196,-2.1174,-2.1094,-2.1084,-2.1058,-2.0976,-2.0927,-2.0716,-2.0734,-2.0705,-2.068,-2.047,-2.0468,-2.0466,-2.0538,-2.0542,-2.0545,0,0,0,0,0,0,-2.163,-2.1494,-2.1462,-2.1387,-2.1304,-2.1179,-2.1145,-2.1101,-2.1015,-2.1011,-2.0909,-2.0879,-2.0792,-2.0726,-2.0748,-2.0605,-2.0588,-2.058,-2.0652,-2.0654,-2.0657,-2.0673,-2.0686,0,0,0,0,0,-2.1641,-2.1577,-2.1458,-2.1402,-2.1363,-2.1262,-2.1214,-2.116,-2.1068,-2.103,-2.0942,-2.0848,-2.0759,-2.0703,-2.0615,-2.0529,-2.0495,-2.0497,-2.05,-2.0503,-2.0496,-2.0439,-2.0437,-2.046,-2.046,-2.046,0,0,-2.1659,-2.1577,-2.1542,-2.1417,-2.1346,-2.1275,-2.1233,-2.116,-2.1103,-2.1017,-2.0923,-2.0853,-2.0741,-2.0649,-2.0604,-2.0591,-2.0482,-2.05,-2.0504,-2.0495,-2.0437,-2.0435,-2.0433,-2.0459,-2.0459,-2.0459,0,0,-2.1657,-2.1592,-2.1536,-2.1467,-2.1363,-2.1295,-2.1281,-2.1162,-2.1114,-2.1019,-2.0951,-2.0878,-2.0731,-2.0652,-2.0593,-2.0556,-2.0505,-2.0529,-2.0543,-2.0488,-2.0486,-2.0484,-2.0466,-2.0461,-2.0524,-2.0524,-2.0524,0,-2.1693,-2.159,-2.1511,-2.1442,-2.1385,-2.1309,-2.1247,-2.1182,-2.1051,-2.101,-2.1,-2.081,-2.0729,-2.0615,-2.0606,-2.0562,-2.0536,-2.0544,-2.0494,-2.0491,-2.0488,-2.0469,-2.0463,-2.0528,-2.0527,-2.0527,-2.0526,0,-2.1635,-2.1563,-2.153,-2.1412,-2.1351,-2.1286,-2.119,-2.1137,-2.1086,-2.1017,-2.0916,-2.0816,-2.0705,-2.0674,-2.0622,-2.0549,-2.0544,-2.0516,-2.0495,-2.049,-2.0471,-2.0463,-2.0532,-2.0531,-2.053,-2.0529,0,0,-2.1681,-2.152,-2.1508,-2.1451,-2.1329,-2.1268,-2.1195,-2.1092,-2.1045,-2.0956,-2.0887,-2.0762,-2.0734,-2.0666,-2.0604,-2.0556,-2.0527,-2.0531,-2.0527,-2.053,-2.0433,-2.0454,-2.0447,-2.0493,-2.0492,-2.049,-2.0441,0,-2.1659,-2.1534,-2.1459,-2.136,-2.1289,-2.1213,-2.1148,-2.1061,-2.0993,-2.0916,-2.0837,-2.0749,-2.0721,-2.0679,-2.0629,-2.0542,-2.0505,-2.0544,-2.042,-2.0417,-2.045,-2.0438,-2.046,-2.0419,-2.0433,-2.0432,-2.0431,0,-2.1618,-2.1536,-2.1433,-2.1314,-2.1281,-2.1226,-2.1121,-2.1052,-2.0948,-2.0901,-2.0825,-2.0762,-2.0673,-2.0661,-2.0533,-2.0561,-2.0505,-2.0453,-2.0449,-2.0432,-2.0423,-2.0416,-2.0404,-2.0397,-2.0419,-2.042,-2.0421,0,-2.1657,-2.152,-2.1439,-2.1393,-2.1254,-2.1215,-2.1154,-2.1051,-2.0992,-2.0898,-2.0857,-2.0752,-2.0693,-2.0609,-2.0516,-2.0518,-2.0394,-2.0377,-2.0346,-2.0348,-2.0322,-2.0325,-2.0297,-2.0292,-2.0292,-2.0292,-2.0292,0,-2.164,-2.1578,-2.1455,-2.1405,-2.133,-2.124,-2.1166,-2.1098,-2.1006,-2.0935,-2.086,-2.0793,-2.0677,-2.0592,-2.0518,-2.0419,-2.0393,-2.0347,-2.0327,-2.0352,-2.0358,-2.0312,-2.0311,-2.029,-2.0291,-2.0291,-2.0291,0,-2.1671,-2.1587,-2.1493,-2.1369,-2.1336,-2.1286,-2.1175,-2.1119,-2.1046,-2.0956,-2.0929,-2.0813,-2.0709,-2.0609,-2.0469,-2.0418,-2.0318,-2.0294,-2.0355,-2.0344,-2.0318,-2.032,-2.0258,-2.0242,-2.0252,-2.0252,-2.0252,0,-2.1665,-2.1616,-2.1487,-2.1438,-2.138,-2.13,-2.124,-2.1146,-2.1085,-2.0961,-2.0917,-2.081,-2.0719,-2.0555,-2.0453,-2.0343,-2.0313,-2.0298,-2.0295,-2.032,-2.0307,-2.031,-2.0301,-2.03,-2.0301,-2.0301,-2.0301,0,-2.1661,-2.1621,-2.1541,-2.1445,-2.1377,-2.1295,-2.1209,-2.117,-2.1059,-2.0992,-2.0889,-2.0819,-2.0677,-2.0567,-2.0445,-2.0372,-2.0315,-2.0303,-2.0289,-2.0313,-2.0349,-2.0324,-2.0358,-2.0305,-2.0304,-2.0304,-2.0304,-2.0304,-2.167,-2.1621,-2.1523,-2.1434,-2.1361,-2.1282,-2.1222,-2.1143,-2.1057,-2.0939,-2.0887,-2.078,-2.0669,-2.0501,-2.0428,-2.0337,-2.0323,-2.0305,-2.0299,-2.0295,-2.0298,-2.0367,-2.0315,-2.0314,-2.0314,-2.0314,-2.0314,0,-2.1658,-2.1591,-2.1511,-2.1396,-2.1324,-2.1284,-2.1185,-2.1125,-2.1036,-2.0941,-2.0853,-2.073,-2.0622,-2.0511,-2.0395,-2.0343,-2.0313,-2.0315,-2.0316,-2.0299,-2.032,-2.0342,-2.0341,-2.0341,-2.0341,-2.0341,-2.0341,-2.0341,-2.1644,-2.1559,-2.1506,-2.1379,-2.1309,-2.1211,-2.1157,-2.108,-2.1004,-2.0873,-2.0785,-2.0716,-2.061,-2.0485,-2.0382,-2.0351,-2.0309,-2.0318,-2.0278,-2.03,-2.0298,-2.0297,-2.0317,-2.031,-2.031,-2.0264,-2.0264,-2.0263]}]]